Location: Unspecified
(40.7945°N, 0.0000°E)
Time: 07:44:43
(UTC+00:00)

Tiros 1 despin weight - Pass Details

Date: 24 January 2021
Orbit: 593 x 642 km, 48.2° (Epoch: 05 March)

Event Time Altitude Azimuth Distance (km) Brightness Sun altitude
Rises 20:17:38 0° 296° (WNW) 2,843 ? -35.8°
Reaches altitude 10° 20:20:00 10° 291° (WNW) 1,932 ? -36.3°
Enters shadow 20:20:52 15° 287° (WNW) 1,612 ? -36.4°
